Zurück zum Katalog

COSMOS 970 DEB *

AktivLEO
NORAD 20032·DEBRIS·🇷🇺 Russia

Gestartet Dec 21, 1977 von Baikonur Cosmodrome

Loading…

Nächste Überflüge (nächste 24 Stunden)

TLE

AktuellSource: Space-Track

Epoche: Sep 14, 2026, 14:39 UTC

1 20032U 77121BW  26257.61063980  .00007125  00000-0  10771-2 0  9993
2 20032  65.6621 337.0232 0357659 262.0113 165.6536 14.39788223668172

Verfolge COSMOS 970 DEB * in Echtzeit mit AllMySat

Download on the App Store